CZ-6A DEB, 54407

Orbit data source: Space-Track

CZ-6A DEB, 54407 is space debris in SSO originally from a launch on Fri, 11 Nov 2022 UTC launched from the Taiyaun Space Center, China (TSC). Debris objects in space refer to the collection of defunct objects orbiting the Earth. Examples of debris include non-operational satellites, rocket bodies, and fragments generated from explosions, collisions, or faulty payload assembly.

Loading next visibility...
Identifier
54407, 2022-151EF
Orbit
SSO
Country
Flag of CNCN / PRC
Related business
Manufacturer
SAST
Mission
Spacecraft
Bus & Motor
Unknown
Mass
Unknown
Launch date (UTC)
2022-11-11 (4 years ago)
Launch vehicle
Unknown
Launch site
Taiyaun Space Center, China (TSC)
Object type
Payload
Rocket body
Debris
Shape & HBR
Unknown shape, 0.2 m
Radar Cross Section
Medium (>0.1 m² and <1 m²)

Expand to show TLE details & history
Last TLE update: 11 hours ago

TLE from 11 hours ago
0 CZ-6A DEB
1 54407U 22151EF  26237.84549296  .00001466  00000-0  67798-3 0  9995
2 54407  98.7728 245.1302 0044165 127.8493 232.6694 14.21889461195599
Epoch: 2026-08-25T20:17Z
TLE epoch observation values (Epoch: 2026-08-25T20:17:30.591Z)
Latitude
0.00004°
Longitude
-33.35426°
Altitude
841.253 km
Speed
7.422 km/s
True Right ascension
16h 20m 31s
True Declination
0° 00' 00"
Sunlit
Object was in daylight at epoch
Visualization orbit readout
Latitude
Unknown
Longitude
Unknown
Altitude
Unknown
Speed
Unknown
Apparent Right ascension
Unknown
Apparent Declination
Unknown
Sunlit
N/A
Visualization observer readout
Local Sidereal Time
22:15:23
Azimuth
Unknown
Elevation
Unknown
Doppler factor
Unknown
Orbital elements
Apogee altitude
847.902 km
Perigee altitude
784.355 km
Semi-major axis
7,194.266 km
Eccentricity
0.00442
Inclination
98.7728°
RAAN
245.1302°
Arg. of periapsis
127.8493°
True anomaly
232.26833°
Mean anomaly
232.6694°
Eccentric anomaly
232.46873°
Mean motion
3.55683 °/min
Orbital period
101.21 mins
BSTAR
0.00067798
Loading maneuver chart data...
Computing Atmospheric mass density...
Loading historical data...
Loading historical data...
Loading historical data...
Loading historical data...
Loading historical data...
Loading historical data...
Loading historical data...

Documentation

Showing up to 5 results
|